,,,PA_Meas_PMT16A,,PR_Meas_QMR101_102,,RH_Meas_QMH101,,SR_Meas_QMS101,,TA_Meas_QMH101,,GenWind,,GenWind,
date,time,status,PA,status,PR,status,RH,status,SR,status,TA,status,DirAvg,status,SpdAvg,
2012-01-21, 00:00:04,VALID,1000.87,VALID,0,VALID,85.3367,VALID,0,VALID,26.0012,VALID,349,VALID,0.917969,
2012-01-21, 00:01:04,VALID,1000.86,VALID,0,VALID,85.268,VALID,0,VALID,26.0206,VALID,343,VALID,1.46641,
2012-01-21, 00:02:04,VALID,1000.86,VALID,0,VALID,85.207,VALID,0,VALID,26.0206,VALID,341,VALID,1.15195,
2012-01-21, 00:03:04,VALID,1000.89,VALID,0,VALID,85.3138,VALID,0,VALID,26.0012,VALID,338,VALID,0.970703,
2012-01-21, 00:04:04,VALID,1000.87,VALID,0,VALID,85.4816,VALID,0,VALID,25.9602,VALID,347,VALID,0.839453,
2012-01-21, 00:05:04,VALID,1000.87,VALID,0,VALID,85.5274,VALID,0,VALID,25.9622,VALID,343,VALID,0.915234,
2012-01-21, 00:06:04,VALID,1000.88,VALID,0,VALID,85.6113,VALID,0,VALID,25.9427,VALID,350,VALID,1.19141,
2012-01-21, 00:07:04,VALID,1000.88,VALID,0,VALID,85.5655,VALID,0,VALID,25.9427,VALID,335,VALID,0.298438,
2012-01-21, 00:08:04,VALID,1000.88,VALID,0,VALID,85.6952,VALID,0,VALID,25.9427,VALID,339,VALID,0.863672,
2012-01-21, 00:09:04,VALID,1000.89,VALID,0,VALID,85.6876,VALID,0,VALID,25.9232,VALID,344,VALID,0.540234,
2012-01-21, 00:10:04,VALID,1000.93,VALID,0,VALID,85.7944,VALID,0,VALID,25.9038,VALID,341,VALID,0.613281,
2012-01-21, 00:11:04,VALID,1000.94,VALID,0,VALID,85.947,VALID,0,VALID,25.9038,VALID,300,VALID,0.345703,
2012-01-21, 00:12:04,VALID,1000.93,VALID,0,VALID,85.9546,VALID,0,VALID,25.8823,VALID,356,VALID,0.309375,
2012-01-21, 00:13:04,VALID,1000.93,VALID,0,VALID,85.8554,VALID,0,VALID,25.8843,VALID,347,VALID,0.366406,
2012-01-21, 00:14:04,VALID,1000.95,VALID,0,VALID,85.9699,VALID,0,VALID,25.8843,VALID,3,VALID,0.342187,
2012-01-21, 00:15:04,VALID,1000.95,VALID,0,VALID,86.1148,VALID,0,VALID,25.8629,VALID,351,VALID,0.551172,
2012-01-21, 00:16:04,VALID,1000.99,VALID,0,VALID,86.0538,VALID,0,VALID,25.8434,VALID,349,VALID,0.174609,
2012-01-21, 00:17:04,VALID,1000.98,VALID,0,VALID,86.0538,VALID,0,VALID,25.8843,VALID,287,VALID,0.142188,
2012-01-21, 00:18:04,VALID,1000.98,VALID,0,VALID,86.0309,VALID,0,VALID,25.8843,VALID,287,VALID,0.401172,
2012-01-21, 00:19:04,VALID,1001.02,VALID,0,VALID,86.0004,VALID,0,VALID,25.9038,VALID,285,VALID,0.530078,
2012-01-21, 00:20:04,VALID,1001.07,VALID,0,VALID,86.0843,VALID,0.0815089,VALID,25.8823,VALID,284,VALID,0,
2012-01-21, 00:21:04,VALID,1001.05,VALID,0,VALID,86.0843,VALID,0,VALID,25.9232,VALID,285,VALID,0.197656,
2012-01-21, 00:22:04,VALID,1001.08,VALID,0,VALID,85.947,VALID,0,VALID,25.9232,VALID,287,VALID,0.414453,
2012-01-21, 00:23:04,VALID,1001.08,VALID,0,VALID,85.8631,VALID,0,VALID,25.9232,VALID,293,VALID,0.20625,
2012-01-21, 00:24:04,VALID,1001.06,VALID,0,VALID,85.9699,VALID,0,VALID,25.8804,VALID,293,VALID,0.0328125,
2012-01-21, 00:25:04,VALID,1001.07,VALID,0,VALID,86.008,VALID,0,VALID,25.9232,VALID,295,VALID,0.245703,
2012-01-21, 00:26:04,VALID,1001.05,VALID,0,VALID,86.0919,VALID,0,VALID,25.8823,VALID,295,VALID,0.412109,
2012-01-21, 00:27:04,VALID,1001.02,VALID,0,VALID,86.2979,VALID,0,VALID,25.8843,VALID,296,VALID,0.426172,
2012-01-21, 00:28:04,VALID,1001,VALID,0,VALID,86.3208,VALID,0,VALID,25.8434,VALID,299,VALID,0.5375,
2012-01-21, 00:29:04,VALID,1000.99,VALID,0,VALID,86.5268,VALID,0,VALID,25.8259,VALID,302,VALID,0.508594,
2012-01-21, 00:30:04,VALID,1000.94,VALID,0,VALID,86.7556,VALID,0,VALID,25.8259,VALID,302,VALID,0.477344,
2012-01-21, 00:31:04,VALID,1000.92,VALID,0,VALID,86.954,VALID,0,VALID,25.746,VALID,302,VALID,0.424609,
2012-01-21, 00:32:04,VALID,1000.91,VALID,0,VALID,87.0684,VALID,0,VALID,25.7674,VALID,302,VALID,0.252344,
2012-01-21, 00:33:04,VALID,1000.94,VALID,0,VALID,87.0532,VALID,0,VALID,25.748,VALID,302,VALID,0,
2012-01-21, 00:34:04,VALID,1000.94,VALID,0,VALID,87.0532,VALID,0,VALID,25.7285,VALID,302,VALID,0.00390625,
2012-01-21, 00:35:04,VALID,1000.91,VALID,0,VALID,87.1218,VALID,0,VALID,25.7285,VALID,302,VALID,0,
2012-01-21, 00:36:04,VALID,1000.91,VALID,0,VALID,87.3125,VALID,0,VALID,25.7285,VALID,302,VALID,0.0183594,
2012-01-21, 00:37:04,VALID,1000.91,VALID,0,VALID,87.282,VALID,0,VALID,25.748,VALID,302,VALID,0,
2012-01-21, 00:38:04,VALID,1000.89,VALID,0,VALID,87.343,VALID,0,VALID,25.748,VALID,302,VALID,0.0683594,
2012-01-21, 00:39:04,VALID,1000.87,VALID,0,VALID,87.4193,VALID,0,VALID,25.746,VALID,302,VALID,0.0328125,
2012-01-21, 00:40:04,VALID,1000.86,VALID,0,VALID,87.5185,VALID,0,VALID,25.7869,VALID,302,VALID,0.233203,
2012-01-21, 00:41:04,VALID,1000.83,VALID,0,VALID,87.5872,VALID,0,VALID,25.8083,VALID,302,VALID,0.184375,
2012-01-21, 00:42:04,VALID,1000.78,VALID,0,VALID,87.3354,VALID,0,VALID,25.7674,VALID,302,VALID,0,
2012-01-21, 00:43:04,VALID,1000.76,VALID,0,VALID,87.3278,VALID,0,VALID,25.7674,VALID,302,VALID,0,
2012-01-21, 00:44:04,VALID,1000.76,VALID,0,VALID,87.4804,VALID,0,VALID,25.7674,VALID,302,VALID,0.610547,
2012-01-21, 00:45:04,VALID,1000.74,VALID,0,VALID,87.4117,VALID,0.0815089,VALID,25.7635,VALID,302,VALID,0.0597656,
2012-01-21, 00:46:04,VALID,1000.74,VALID,0,VALID,87.4193,VALID,0,VALID,25.8239,VALID,302,VALID,0,
2012-01-21, 00:47:04,VALID,1000.78,VALID,0,VALID,87.2286,VALID,0.0815089,VALID,25.8025,VALID,302,VALID,0.162891,
2012-01-21, 00:48:04,VALID,1000.83,VALID,0,VALID,87.2439,VALID,0.0815089,VALID,25.8629,VALID,302,VALID,0.106641,
2012-01-21, 00:49:04,VALID,1000.82,VALID,0,VALID,87.6024,VALID,0.0815089,VALID,25.8823,VALID,302,VALID,0.0265625,
2012-01-21, 00:50:04,VALID,1000.81,VALID,0,VALID,87.5109,VALID,0.0815089,VALID,25.8629,VALID,302,VALID,0.0609375,
2012-01-21, 00:51:04,VALID,1000.82,VALID,0,VALID,87.7932,VALID,0.0815089,VALID,25.8434,VALID,302,VALID,0.426172,
2012-01-21, 00:52:04,VALID,1000.84,VALID,0,VALID,88.0678,VALID,0.0815089,VALID,25.8414,VALID,302,VALID,0.478516,
2012-01-21, 00:53:04,VALID,1000.89,VALID,0,VALID,88.1365,VALID,0,VALID,25.8434,VALID,201,VALID,0.786328,
2012-01-21, 00:54:04,VALID,1000.99,VALID,0,VALID,88.5332,VALID,0.0815089,VALID,25.8239,VALID,175,VALID,1.66367,
2012-01-21, 00:55:04,VALID,1001.02,VALID,0,VALID,86.3132,VALID,0,VALID,25.8239,VALID,185,VALID,3.30469,
2012-01-21, 00:56:04,VALID,1001.02,VALID,0,VALID,85.3824,VALID,0.0815089,VALID,25.785,VALID,206,VALID,1.44922,
2012-01-21, 00:57:04,VALID,1000.98,VALID,0,VALID,85.062,VALID,0,VALID,25.7655,VALID,221,VALID,1.51016,
2012-01-21, 00:58:04,VALID,1000.95,VALID,0,VALID,84.8866,VALID,0.0815089,VALID,25.7246,VALID,189,VALID,1.93164,
2012-01-21, 00:59:04,VALID,1000.93,VALID,0,VALID,84.2152,VALID,0,VALID,25.746,VALID,201,VALID,2.82539,
2012-01-21, 01:00:04,VALID,1000.91,VALID,0,VALID,83.8033,VALID,0,VALID,25.7285,VALID,175,VALID,1.43008,
2012-01-21, 01:01:04,VALID,1000.94,VALID,0,VALID,82.4072,VALID,0,VALID,25.6895,VALID,220,VALID,1.88633,
2012-01-21, 01:02:04,VALID,1000.93,VALID,0,VALID,82.5903,VALID,0,VALID,25.67,VALID,190,VALID,1.87461,
2012-01-21, 01:03:04,VALID,1000.9,VALID,0,VALID,82.247,VALID,0,VALID,25.6311,VALID,214,VALID,1.81055,
2012-01-21, 01:04:04,VALID,1000.87,VALID,0,VALID,82.247,VALID,0,VALID,25.5513,VALID,213,VALID,0.850391,
2012-01-21, 01:05:04,VALID,1000.84,VALID,0,VALID,82.3461,VALID,0,VALID,25.5532,VALID,171,VALID,2.30586,
2012-01-21, 01:06:04,VALID,1000.82,VALID,0,VALID,82.3461,VALID,0,VALID,25.5551,VALID,196,VALID,1.99766,
2012-01-21, 01:07:04,VALID,1000.76,VALID,0,VALID,82.4606,VALID,0,VALID,25.4948,VALID,184,VALID,2.14453,
2012-01-21, 01:08:04,VALID,1000.74,VALID,0,VALID,82.903,VALID,0,VALID,25.4558,VALID,128,VALID,0.442187,
2012-01-21, 01:09:04,VALID,1000.74,VALID,0,VALID,82.1325,VALID,0,VALID,25.4169,VALID,173,VALID,1.67422,
2012-01-21, 01:10:04,VALID,1000.73,VALID,0,VALID,82.6131,VALID,0,VALID,25.339,VALID,209,VALID,0.620313,
2012-01-21, 01:11:04,VALID,1000.76,VALID,0,VALID,82.8115,VALID,0,VALID,25.2806,VALID,183,VALID,0.757422,
2012-01-21, 01:12:04,VALID,1000.72,VALID,0,VALID,83.109,VALID,0,VALID,25.1832,VALID,161,VALID,1.20039,
2012-01-21, 01:13:04,VALID,1000.72,VALID,0,VALID,84.1618,VALID,0,VALID,25.0644,VALID,271,VALID,0.704687,
2012-01-21, 01:14:04,VALID,1000.79,VALID,0.5,VALID,84.6195,VALID,0,VALID,24.969,VALID,198,VALID,1.78945,
2012-01-21, 01:15:04,VALID,1000.73,VALID,0,VALID,86.0614,VALID,0,VALID,24.7159,VALID,189,VALID,0.610547,
2012-01-21, 01:16:04,VALID,1000.7,VALID,0,VALID,87.1447,VALID,0,VALID,24.5406,VALID,189,VALID,0.16875,
2012-01-21, 01:17:04,VALID,1000.66,VALID,0.5,VALID,87.6024,VALID,0,VALID,24.3654,VALID,59,VALID,0.712891,
2012-01-21, 01:18:04,VALID,1000.59,VALID,0,VALID,88.1212,VALID,0,VALID,24.2291,VALID,90,VALID,0.876562,
2012-01-21, 01:19:04,VALID,1000.57,VALID,0,VALID,88.5866,VALID,0,VALID,24.1123,VALID,94,VALID,0.500391,
2012-01-21, 01:20:04,VALID,1000.51,VALID,0,VALID,89.029,VALID,0,VALID,24.0539,VALID,69,VALID,1.36367,
2012-01-21, 01:21:04,VALID,1000.5,VALID,0,VALID,89.2121,VALID,0,VALID,23.9761,VALID,93,VALID,1.08828,
2012-01-21, 01:22:04,VALID,1000.48,VALID,0,VALID,89.4944,VALID,0,VALID,23.9159,VALID,105,VALID,1.07695,
2012-01-21, 01:23:04,VALID,1000.49,VALID,0,VALID,89.7385,VALID,0,VALID,23.8769,VALID,82,VALID,0.371094,
2012-01-21, 01:24:04,VALID,1000.55,VALID,0,VALID,90.1505,VALID,0,VALID,23.8787,VALID,82,VALID,0.176563,
2012-01-21, 01:25:04,VALID,1000.59,VALID,0,VALID,90.0055,VALID,0,VALID,23.838,VALID,100,VALID,1.2082,
2012-01-21, 01:26:04,VALID,1000.61,VALID,0,VALID,89.9445,VALID,0,VALID,23.8982,VALID,79,VALID,0.76875,
2012-01-21, 01:27:04,VALID,1000.6,VALID,0,VALID,89.6241,VALID,0,VALID,23.9177,VALID,38,VALID,0.983984,
2012-01-21, 01:28:04,VALID,1000.63,VALID,0,VALID,90.12,VALID,0,VALID,23.8964,VALID,29,VALID,0.774219,
2012-01-21, 01:29:04,VALID,1000.63,VALID,0,VALID,90.0589,VALID,0,VALID,23.9177,VALID,29,VALID,0.337109,
2012-01-21, 01:30:04,VALID,1000.6,VALID,0,VALID,90.3336,VALID,0,VALID,23.8769,VALID,29,VALID,0.172266,
2012-01-21, 01:31:04,VALID,1000.57,VALID,0,VALID,90.86,VALID,0,VALID,23.9389,VALID,19,VALID,0.658594,
2012-01-21, 01:32:04,VALID,1000.56,VALID,0,VALID,90.9057,VALID,0,VALID,23.8769,VALID,14,VALID,0.716797,
2012-01-21, 01:33:04,VALID,1000.51,VALID,0,VALID,91.3864,VALID,0,VALID,23.8982,VALID,14,VALID,0.681641,
2012-01-21, 01:34:04,VALID,1000.45,VALID,0,VALID,91.5389,VALID,0,VALID,23.8787,VALID,14,VALID,0.572266,
2012-01-21, 01:35:04,VALID,1000.43,VALID,0,VALID,91.5542,VALID,0,VALID,23.8398,VALID,14,VALID,0.0960938,
2012-01-21, 01:36:04,VALID,1000.39,VALID,0,VALID,91.7373,VALID,0,VALID,23.8185,VALID,14,VALID,0,
2012-01-21, 01:37:04,VALID,1000.41,VALID,0,VALID,91.8594,VALID,0,VALID,23.8185,VALID,14,VALID,0.189844,
2012-01-21, 01:38:04,VALID,1000.4,VALID,0,VALID,92.1035,VALID,0,VALID,23.8185,VALID,13,VALID,0.503906,
2012-01-21, 01:39:04,VALID,1000.47,VALID,0,VALID,92.34,VALID,0,VALID,23.7991,VALID,13,VALID,0.411719,
2012-01-21, 01:40:04,VALID,1000.49,VALID,0,VALID,92.4163,VALID,0,VALID,23.8593,VALID,13,VALID,0.362891,
2012-01-21, 01:41:04,VALID,1000.49,VALID,0,VALID,92.4163,VALID,0,VALID,23.8185,VALID,13,VALID,0.471484,
2012-01-21, 01:42:04,VALID,1000.53,VALID,0,VALID,92.4391,VALID,0,VALID,23.8398,VALID,5,VALID,0.668359,
2012-01-21, 01:43:04,VALID,1000.52,VALID,0,VALID,92.5231,VALID,0,VALID,23.8185,VALID,358,VALID,0.522266,
2012-01-21, 01:44:04,VALID,1000.55,VALID,0,VALID,92.8206,VALID,0,VALID,23.838,VALID,356,VALID,0.678516,
2012-01-21, 01:45:04,VALID,1000.53,VALID,0,VALID,92.7824,VALID,0,VALID,23.8593,VALID,353,VALID,0.782422,
2012-01-21, 01:46:04,VALID,1000.52,VALID,0,VALID,92.8206,VALID,0,VALID,23.8575,VALID,342,VALID,0.887109,
2012-01-21, 01:47:04,VALID,1000.51,VALID,0,VALID,92.8969,VALID,0,VALID,23.8575,VALID,342,VALID,0.832031,
2012-01-21, 01:48:04,VALID,1000.51,VALID,0,VALID,92.8892,VALID,0,VALID,23.8575,VALID,347,VALID,1.02266,
2012-01-21, 01:49:04,VALID,1000.5,VALID,0,VALID,92.7596,VALID,0,VALID,23.8593,VALID,346,VALID,0.908984,
2012-01-21, 01:50:04,VALID,1000.5,VALID,0,VALID,92.7367,VALID,0,VALID,23.8593,VALID,350,VALID,1.13437,
2012-01-21, 01:51:04,VALID,1000.49,VALID,0,VALID,92.6756,VALID,0,VALID,23.8398,VALID,351,VALID,0.782812,
2012-01-21, 01:52:04,VALID,1000.48,VALID,0,VALID,92.5307,VALID,0,VALID,23.8185,VALID,349,VALID,1.13398,
2012-01-21, 01:53:04,VALID,1000.46,VALID,0,VALID,92.5765,VALID,0,VALID,23.838,VALID,350,VALID,0.837891,
2012-01-21, 01:54:04,VALID,1000.5,VALID,0,VALID,92.4086,VALID,0,VALID,23.8398,VALID,350,VALID,0.696484,
2012-01-21, 01:55:04,VALID,1000.51,VALID,0,VALID,92.5231,VALID,0,VALID,23.838,VALID,349,VALID,0.534766,
2012-01-21, 01:56:04,VALID,1000.52,VALID,0,VALID,92.4163,VALID,0,VALID,23.838,VALID,348,VALID,0.875391,
2012-01-21, 01:57:04,VALID,1000.55,VALID,0,VALID,92.4315,VALID,0,VALID,23.8575,VALID,351,VALID,0.891016,
2012-01-21, 01:58:04,VALID,1000.55,VALID,0,VALID,92.1569,VALID,0,VALID,23.8575,VALID,351,VALID,0.913672,
2012-01-21, 01:59:04,VALID,1000.57,VALID,0,VALID,92.1721,VALID,0,VALID,23.9159,VALID,348,VALID,0.776953,
2012-01-21, 02:00:04,VALID,1000.54,VALID,0,VALID,92.3629,VALID,0,VALID,23.9955,VALID,343,VALID,0.511719,
2012-01-21, 02:01:04,VALID,1000.54,VALID,0,VALID,92.3629,VALID,0,VALID,23.9937,VALID,343,VALID,0.483594,
2012-01-21, 02:02:04,VALID,1000.57,VALID,0,VALID,92.3323,VALID,0,VALID,24.0326,VALID,343,VALID,0.112891,
2012-01-21, 02:03:04,VALID,1000.6,VALID,0,VALID,92.2255,VALID,0,VALID,24.0716,VALID,288,VALID,0.924219,
2012-01-21, 02:04:04,VALID,1000.62,VALID,0,VALID,92.2637,VALID,0,VALID,24.091,VALID,286,VALID,0.107422,
2012-01-21, 02:05:04,VALID,1000.64,VALID,0,VALID,92.1798,VALID,0,VALID,24.1105,VALID,293,VALID,0.865234,
2012-01-21, 02:06:04,VALID,1000.66,VALID,0,VALID,92.0119,VALID,0,VALID,24.13,VALID,312,VALID,0.630078,
2012-01-21, 02:07:04,VALID,1000.66,VALID,0,VALID,92.0577,VALID,0.0815089,VALID,24.1689,VALID,355,VALID,0.214453,
2012-01-21, 02:08:04,VALID,1000.65,VALID,0,VALID,92.0043,VALID,0,VALID,24.1884,VALID,340,VALID,0.721875,
2012-01-21, 02:09:04,VALID,1000.58,VALID,0,VALID,91.8517,VALID,0,VALID,24.1884,VALID,349,VALID,0.950781,
2012-01-21, 02:10:04,VALID,1000.59,VALID,0,VALID,91.8365,VALID,0,VALID,24.2097,VALID,311,VALID,0.486719,
2012-01-21, 02:11:04,VALID,1000.54,VALID,0,VALID,91.7297,VALID,0,VALID,24.1884,VALID,358,VALID,0.814062,
2012-01-21, 02:12:04,VALID,1000.57,VALID,0,VALID,91.8288,VALID,0,VALID,24.1884,VALID,306,VALID,0.508594,
2012-01-21, 02:13:04,VALID,1000.52,VALID,0,VALID,91.8059,VALID,0,VALID,24.1884,VALID,315,VALID,0.377344,
2012-01-21, 02:14:04,VALID,1000.51,VALID,0,VALID,91.8365,VALID,0,VALID,24.1689,VALID,282,VALID,0.448047,
2012-01-21, 02:15:04,VALID,1000.52,VALID,0,VALID,91.8822,VALID,0,VALID,24.2097,VALID,16,VALID,0.263672,
2012-01-21, 02:16:04,VALID,1000.47,VALID,0,VALID,91.8975,VALID,0.0815089,VALID,24.1689,VALID,330,VALID,0.919922,
2012-01-21, 02:17:04,VALID,1000.44,VALID,0,VALID,91.8822,VALID,0,VALID,24.1689,VALID,358,VALID,1.02539,
2012-01-21, 02:18:04,VALID,1000.44,VALID,0,VALID,91.928,VALID,0,VALID,24.1281,VALID,338,VALID,0.877734,
2012-01-21, 02:19:04,VALID,1000.38,VALID,0,VALID,91.7068,VALID,0,VALID,24.13,VALID,351,VALID,1.65742,
2012-01-21, 02:20:04,VALID,1000.4,VALID,0,VALID,91.7525,VALID,0,VALID,24.1105,VALID,312,VALID,0.404687,
2012-01-21, 02:21:04,VALID,1000.39,VALID,0,VALID,91.8746,VALID,0.0815089,VALID,24.13,VALID,350,VALID,0.210938,
2012-01-21, 02:22:04,VALID,1000.4,VALID,0,VALID,91.8594,VALID,0,VALID,24.1105,VALID,340,VALID,0.563281,
2012-01-21, 02:23:04,VALID,1000.37,VALID,0,VALID,91.9128,VALID,0,VALID,24.1105,VALID,338,VALID,0.150391,
2012-01-21, 02:24:04,VALID,1000.36,VALID,0,VALID,91.8136,VALID,0,VALID,24.1105,VALID,338,VALID,0.50625,
2012-01-21, 02:25:04,VALID,1000.31,VALID,0,VALID,91.867,VALID,0,VALID,24.091,VALID,339,VALID,0.397266,
2012-01-21, 02:26:04,VALID,1000.26,VALID,0,VALID,91.9204,VALID,0,VALID,24.0716,VALID,339,VALID,0.0589844,
2012-01-21, 02:27:04,VALID,1000.25,VALID,0,VALID,91.8365,VALID,0,VALID,24.0521,VALID,339,VALID,0.471094,
2012-01-21, 02:28:04,VALID,1000.23,VALID,0,VALID,91.6229,VALID,0,VALID,24.0521,VALID,350,VALID,0.774609,
2012-01-21, 02:29:04,VALID,1000.2,VALID,0,VALID,91.7297,VALID,0,VALID,24.0326,VALID,345,VALID,0.532812,
2012-01-21, 02:30:04,VALID,1000.2,VALID,0,VALID,91.2414,VALID,0.0815089,VALID,24.0326,VALID,343,VALID,1.13984,
2012-01-21, 02:31:04,VALID,1000.2,VALID,0,VALID,91.1956,VALID,0,VALID,23.9724,VALID,343,VALID,0.885156,
2012-01-21, 02:32:04,VALID,1000.22,VALID,0,VALID,91.4474,VALID,0.0815089,VALID,23.953,VALID,351,VALID,0.788672,
2012-01-21, 02:33:04,VALID,1000.2,VALID,0,VALID,91.5618,VALID,0.0815089,VALID,23.953,VALID,350,VALID,0.707031,
2012-01-21, 02:34:04,VALID,1000.22,VALID,0,VALID,91.4398,VALID,0.0815089,VALID,23.9335,VALID,351,VALID,1.0125,
2012-01-21, 02:35:04,VALID,1000.25,VALID,0,VALID,91.6305,VALID,0.0815089,VALID,23.9566,VALID,349,VALID,0.0738281,
2012-01-21, 02:36:04,VALID,1000.26,VALID,0,VALID,91.7144,VALID,0.0815089,VALID,23.9548,VALID,349,VALID,0.182031,
2012-01-21, 02:37:04,VALID,1000.25,VALID,0,VALID,91.6229,VALID,0.0815089,VALID,23.8946,VALID,12,VALID,1.09961,
2012-01-21, 02:38:04,VALID,1000.28,VALID,0,VALID,91.5923,VALID,0,VALID,23.8964,VALID,339,VALID,0.955078,
2012-01-21, 02:39:04,VALID,1000.29,VALID,0,VALID,91.5466,VALID,0.0815089,VALID,23.8769,VALID,323,VALID,0.865625,
2012-01-21, 02:40:04,VALID,1000.25,VALID,0,VALID,91.7907,VALID,0,VALID,23.8769,VALID,294,VALID,0.352344,
2012-01-21, 02:41:04,VALID,1000.25,VALID,0,VALID,91.0507,VALID,0,VALID,23.8575,VALID,343,VALID,1.4125,
2012-01-21, 02:42:04,VALID,1000.24,VALID,0,VALID,91.4703,VALID,0.0815089,VALID,23.8575,VALID,340,VALID,0.382813,
2012-01-21, 02:43:04,VALID,1000.21,VALID,0,VALID,91.3101,VALID,0.0815089,VALID,23.8575,VALID,345,VALID,0.637891,
2012-01-21, 02:44:04,VALID,1000.23,VALID,0,VALID,91.1956,VALID,0.0815089,VALID,23.8575,VALID,294,VALID,0.8125,
2012-01-21, 02:45:04,VALID,1000.26,VALID,0,VALID,91.188,VALID,0.0815089,VALID,23.8556,VALID,289,VALID,0.942578,
2012-01-21, 02:46:05,VALID,1000.23,VALID,0,VALID,91.2185,VALID,0.0815089,VALID,23.8769,VALID,287,VALID,1.07656,
2012-01-21, 02:47:05,VALID,1000.23,VALID,0,VALID,91.2414,VALID,0.0815089,VALID,23.8769,VALID,12,VALID,0.601172,
2012-01-21, 02:48:05,VALID,1000.19,VALID,0,VALID,90.9973,VALID,0.0815089,VALID,23.8769,VALID,344,VALID,1.59258,
2012-01-21, 02:49:05,VALID,1000.19,VALID,0,VALID,90.982,VALID,0.0815089,VALID,23.8575,VALID,358,VALID,1.15195,
2012-01-21, 02:50:05,VALID,1000.15,VALID,0,VALID,91.1041,VALID,0.0815089,VALID,23.8769,VALID,350,VALID,0.725,
2012-01-21, 02:51:05,VALID,1000.15,VALID,0,VALID,91.2948,VALID,0.0815089,VALID,23.8556,VALID,352,VALID,0,
2012-01-21, 02:52:05,VALID,1000.14,VALID,0,VALID,91.3558,VALID,0.0815089,VALID,23.8769,VALID,273,VALID,0.219922,
2012-01-21, 02:53:05,VALID,1000.14,VALID,0,VALID,91.333,VALID,0.0815089,VALID,23.8556,VALID,265,VALID,0.407422,
2012-01-21, 02:54:05,VALID,1000.09,VALID,0,VALID,91.1804,VALID,0.0815089,VALID,23.8575,VALID,5,VALID,0.69375,
2012-01-21, 02:55:05,VALID,1000.09,VALID,0,VALID,91.1117,VALID,0.0815089,VALID,23.8362,VALID,320,VALID,0.766016,
2012-01-21, 02:56:05,VALID,1000.07,VALID,0,VALID,91.1804,VALID,0.0815089,VALID,23.8167,VALID,348,VALID,0.920313,
2012-01-21, 02:57:05,VALID,1000.07,VALID,0,VALID,91.4169,VALID,0.0815089,VALID,23.8769,VALID,353,VALID,0.158594,
2012-01-21, 02:58:05,VALID,1000.05,VALID,0,VALID,90.9744,VALID,0.0815089,VALID,23.8167,VALID,305,VALID,1.11484,
2012-01-21, 02:59:05,VALID,1000.08,VALID,0,VALID,91.4169,VALID,0.0815089,VALID,23.8362,VALID,338,VALID,0.65,
2012-01-21, 03:00:05,VALID,1000.08,VALID,0,VALID,91.3101,VALID,0,VALID,23.838,VALID,285,VALID,0.389062,
2012-01-21, 03:01:05,VALID,1000.04,VALID,0,VALID,91.2796,VALID,0,VALID,23.8185,VALID,337,VALID,1.16484,
2012-01-21, 03:02:05,VALID,1000.03,VALID,0,VALID,91.2567,VALID,0,VALID,23.7991,VALID,337,VALID,0.791016,
2012-01-21, 03:03:05,VALID,999.999,VALID,0,VALID,91.3101,VALID,0,VALID,23.8009,VALID,349,VALID,1.04336,
2012-01-21, 03:04:05,VALID,1000.02,VALID,0,VALID,91.5084,VALID,0,VALID,23.8009,VALID,338,VALID,0.878516,
2012-01-21, 03:05:05,VALID,1000.02,VALID,0,VALID,91.722,VALID,0,VALID,23.8203,VALID,359,VALID,0.2625,
2012-01-21, 03:06:05,VALID,1000.02,VALID,0,VALID,91.6991,VALID,0,VALID,23.7991,VALID,295,VALID,0.286719,
2012-01-21, 03:07:05,VALID,1000.03,VALID,0,VALID,91.8975,VALID,0,VALID,23.8203,VALID,295,VALID,0.272266,
2012-01-21, 03:08:05,VALID,1000.03,VALID,0,VALID,91.8822,VALID,0,VALID,23.8398,VALID,295,VALID,0.00117188,
2012-01-21, 03:09:05,VALID,1000.01,VALID,0,VALID,91.5847,VALID,0,VALID,23.7796,VALID,279,VALID,0.907812,
2012-01-21, 03:10:05,VALID,999.993,VALID,0,VALID,91.7449,VALID,0,VALID,23.8203,VALID,293,VALID,0.463672,
2012-01-21, 03:11:05,VALID,999.986,VALID,0,VALID,91.8288,VALID,0,VALID,23.8203,VALID,292,VALID,0.564844,
2012-01-21, 03:12:05,VALID,999.971,VALID,0,VALID,91.8594,VALID,0,VALID,23.8185,VALID,292,VALID,0,
2012-01-21, 03:13:05,VALID,999.965,VALID,0,VALID,91.8365,VALID,0,VALID,23.8203,VALID,310,VALID,0.239063,
2012-01-21, 03:14:05,VALID,999.98,VALID,0,VALID,91.6991,VALID,0,VALID,23.7991,VALID,286,VALID,0.798047,
2012-01-21, 03:15:05,VALID,1000.01,VALID,0,VALID,91.8746,VALID,0,VALID,23.8203,VALID,287,VALID,0.582031,
2012-01-21, 03:16:05,VALID,1000.01,VALID,0,VALID,91.9585,VALID,0,VALID,23.8185,VALID,324,VALID,0.181641,
2012-01-21, 03:17:05,VALID,1000.05,VALID,0,VALID,91.928,VALID,0,VALID,23.8185,VALID,294,VALID,0.599609,
2012-01-21, 03:18:05,VALID,1000.02,VALID,0,VALID,91.928,VALID,0,VALID,23.8185,VALID,336,VALID,0.710938,
2012-01-21, 03:19:05,VALID,1000,VALID,0,VALID,92.0196,VALID,0,VALID,23.8203,VALID,336,VALID,0.372266,
2012-01-21, 03:20:05,VALID,1000,VALID,0,VALID,92.1187,VALID,0,VALID,23.8398,VALID,339,VALID,0.282031,
2012-01-21, 03:21:05,VALID,1000,VALID,0.5,VALID,92.2484,VALID,0,VALID,23.838,VALID,340,VALID,0.650391,
2012-01-21, 03:22:05,VALID,1000.01,VALID,0,VALID,92.1111,VALID,0,VALID,23.8185,VALID,350,VALID,0.491016,
2012-01-21, 03:23:05,VALID,1000.02,VALID,0,VALID,92.1645,VALID,0,VALID,23.7991,VALID,338,VALID,0.817969,
2012-01-21, 03:24:05,VALID,1000,VALID,0,VALID,92.195,VALID,0,VALID,23.8203,VALID,357,VALID,1.04062,
2012-01-21, 03:25:05,VALID,999.99,VALID,0,VALID,92.2332,VALID,0,VALID,23.8009,VALID,353,VALID,1.11836,
2012-01-21, 03:26:05,VALID,999.991,VALID,0,VALID,92.3018,VALID,0,VALID,23.8009,VALID,350,VALID,1.23008,
2012-01-21, 03:27:05,VALID,1000.02,VALID,0,VALID,92.4544,VALID,0,VALID,23.7814,VALID,346,VALID,0.638672,
2012-01-21, 03:28:05,VALID,1000.01,VALID,0,VALID,92.6299,VALID,0,VALID,23.8009,VALID,345,VALID,0.453125,
2012-01-21, 03:29:05,VALID,999.997,VALID,0,VALID,92.6146,VALID,0,VALID,23.7601,VALID,320,VALID,0.742578,
2012-01-21, 03:30:05,VALID,1000.01,VALID,0,VALID,92.5917,VALID,0,VALID,23.7601,VALID,10,VALID,0.937891,
2012-01-21, 03:31:05,VALID,1000.01,VALID,0,VALID,92.7062,VALID,0,VALID,23.7601,VALID,354,VALID,0.738281,
2012-01-21, 03:32:05,VALID,1000.02,VALID,0,VALID,92.6299,VALID,0,VALID,23.7619,VALID,230,VALID,0.535547,
2012-01-21, 03:33:05,VALID,1000.05,VALID,0,VALID,92.6375,VALID,0,VALID,23.7601,VALID,339,VALID,0.948828,
2012-01-21, 03:34:05,VALID,1000.06,VALID,0,VALID,92.7138,VALID,0,VALID,23.7619,VALID,351,VALID,0.79375,
2012-01-21, 03:35:05,VALID,1000.06,VALID,0,VALID,92.5612,VALID,0,VALID,23.7212,VALID,350,VALID,1.13516,
2012-01-21, 03:36:05,VALID,1000.09,VALID,0,VALID,92.4239,VALID,0,VALID,23.7017,VALID,350,VALID,1.51914,
2012-01-21, 03:37:05,VALID,1000.09,VALID,0,VALID,92.5078,VALID,0,VALID,23.6434,VALID,344,VALID,1.38008,
2012-01-21, 03:38:05,VALID,1000.12,VALID,0,VALID,92.3476,VALID,0,VALID,23.6452,VALID,351,VALID,1.49883,
2012-01-21, 03:39:05,VALID,1000.1,VALID,0,VALID,92.3476,VALID,0,VALID,23.6257,VALID,339,VALID,1.23828,
2012-01-21, 03:40:05,VALID,1000.1,VALID,0,VALID,92.1721,VALID,0,VALID,23.585,VALID,348,VALID,2.33789,
2012-01-21, 03:41:05,VALID,1000.12,VALID,0,VALID,92.4773,VALID,0,VALID,23.5655,VALID,350,VALID,1.09336,
2012-01-21, 03:42:05,VALID,1000.15,VALID,0,VALID,92.3857,VALID,0,VALID,23.5478,VALID,348,VALID,1.8582,